Wind_Speed
3 3 3 3 3 2 1 2 3 3 3 4 4 4 5 5 6 7 8 8 9 9 8 7 8 8 7 7 7 7 6 6 6 6 6 6 5 5 5 5 5 5 6 6 6 7 7 6 6
3 3 2 2 3 1 3 3 3 3 4 5 5 6 6 6 7 8 8 9 9 10 9 9 8 8 8 8 8 8 8 7 7 7 7 7 6 6 6 6 6 7 7 7 7 8 8 8 7
3 2 1 1 2 2 3 4 5 5 6 6 6 6 7 7 7 9 10 10 11 11 10 10 10 10 10 10 10 9 9 8 8 8 8 8 8 7 7 8 8 8 8 9 9 9 9 9 9
4 2 1 0 2 4 4 5 6 6 7 6 6 7 7 8 8 9 10 11 11 12 13 12 12 12 11 11 12 11 11 10 10 10 9 9 9 8 9 9 9 9 9 9 10 9 9 9 9
4 2 1 3 5 5 6 6 6 7 7 6 6 7 7 8 9 11 12 12 13 14 14 14 13 13 13 13 12 12 11 11 11 11 11 10 10 10 10 11 11 11 10 10 10 10 10 9 9
4 3 3 5 6 7 8 7 7 7 7 7 7 8 8 9 11 12 13 14 15 15 16 15 15 14 14 14 13 12 12 12 12 12 12 12 12 12 12 13 13 12 12 12 11 11 11 11 11
5 4 6 7 8 8 9 9 9 9 9 8 8 9 10 10 12 13 14 15 16 16 17 16 17 16 15 15 14 14 13 13 13 13 13 14 14 14 15 15 14 14 13 13 13 13 13 13 13
6 5 6 8 8 9 9 10 10 11 11 11 10 11 11 12 12 13 15 16 16 17 18 18 17 17 16 15 15 15 15 15 14 14 15 15 16 16 17 16 16 16 15 15 15 15 15 14 14
6 5 7 9 9 10 10 11 12 11 11 11 11 12 12 12 13 14 16 16 17 18 18 19 18 17 17 16 16 16 16 16 16 16 16 16 17 18 18 18 18 18 17 17 17 16 16 16 16
7 7 9 10 10 11 11 12 12 12 12 13 13 13 13 13 14 15 16 16 18 19 19 19 18 18 19 18 17 17 17 17 17 17 18 18 18 19 19 18 19 19 19 19 19 18 17 17 17
9 9 10 11 11 12 12 11 12 13 13 14 14 14 14 14 15 16 17 18 19 19 19 19 19 19 19 18 17 16 18 19 19 19 19 19 20 19 19 19 19 20 20 21 20 21 20 19 18
9 10 10 11 11 12 12 12 12 13 14 15 15 15 15 15 15 17 18 19 19 19 19 19 19 18 18 18 17 18 19 20 20 20 20 21 21 20 20 20 20 21 21 21 22 22 21 20 19
11 11 11 11 12 12 12 12 13 13 13 14 15 15 15 15 16 18 19 20 20 20 19 19 18 17 18 19 19 19 20 21 21 21 20 20 21 21 22 21 20 20 21 21 22 22 22 22 21
12 12 11 12 13 13 13 13 13 13 13 14 15 15 16 17 18 19 19 20 20 20 20 19 18 18 19 19 20 20 22 22 22 23 23 22 22 22 21 21 21 21 22 22 22 23 22 23 23
11 11 13 13 14 14 14 14 15 15 15 16 16 16 17 18 19 20 21 20 20 20 20 20 19 19 19 20 21 22 23 23 24 24 24 24 23 23 23 22 22 22 22 23 23 23 22 22 23
12 12 12 15 15 16 15 15 16 17 17 17 17 18 18 19 19 20 21 21 21 21 21 20 20 20 20 20 22 23 23 23 24 24 23 24 24 24 23 23 22 22 22 22 22 23 22 23 23
12 12 13 15 16 16 16 16 16 17 16 17 17 17 18 19 19 20 21 22 22 22 21 21 21 20 21 22 23 24 24 24 24 24 24 25 25 25 25 24 23 23 23 23 23 23 23 23 23
14 13 14 14 15 15 16 16 16 16 16 17 17 18 19 19 20 20 21 21 22 22 21 22 22 22 22 23 24 25 25 25 25 25 25 26 25 25 25 24 24 24 23 23 23 24 23 23 23
14 14 13 14 16 15 15 16 16 16 16 17 18 19 19 20 20 21 22 22 22 22 21 22 22 23 23 24 25 25 24 24 24 25 25 25 25 24 24 24 24 24 24 23 23 24 24 23 23
15 14 14 16 16 15 15 15 16 16 16 18 19 20 20 20 21 22 23 23 22 21 21 22 23 24 24 25 25 25 24 24 25 25 25 25 24 24 24 24 24 23 23 23 23 24 24 23 23
14 15 15 15 15 15 15 15 15 16 17 18 19 20 21 21 21 22 22 22 21 22 23 23 24 24 24 25 25 25 25 25 24 24 24 24 24 23 24 24 24 24 24 24 24 23 24 24 24
13 14 15 15 15 14 15 15 16 17 18 19 19 20 21 22 22 22 22 22 23 24 24 24 24 24 24 24 24 24 25 24 24 24 23 23 24 23 23 24 24 24 24 24 23 23 23 24 24
12 13 14 14 14 14 14 14 16 18 18 19 20 20 21 22 22 21 21 22 24 24 25 25 25 25 25 25 24 24 24 24 24 24 23 22 22 21 22 22 23 24 24 24 22 22 22 22 23
12 12 12 12 12 13 14 15 16 18 19 20 20 20 21 22 22 22 22 23 24 24 25 26 26 26 25 24 24 25 24 24 24 24 23 22 21 21 22 22 22 23 24 24 23 22 23 22 22
12 11 11 11 12 14 16 16 17 18 19 19 19 20 21 23 23 23 23 23 23 24 25 26 26 25 24 25 24 24 24 24 24 23 23 22 21 22 22 21 21 22 23 23 23 22 23 23 23
12 11 11 12 12 13 16 17 18 19 19 19 20 21 22 23 23 24 23 23 24 24 24 25 25 24 24 24 24 24 24 23 23 23 22 22 21 21 21 21 21 21 22 22 22 23 23 24 24
12 12 12 13 13 14 15 18 18 19 20 21 21 22 23 24 23 23 23 24 25 24 24 24 25 23 23 23 23 23 23 22 22 21 21 21 21 21 21 21 21 20 21 21 22 23 24 24 24
12 13 13 13 14 15 15 17 18 20 21 21 22 23 24 24 24 24 24 25 25 25 26 25 24 23 23 23 23 23 23 22 22 21 21 21 21 21 22 22 21 21 20 21 22 22 22 22 22
14 14 14 14 15 15 16 17 18 21 22 23 23 24 25 25 24 24 25 25 25 26 25 25 24 24 23 23 23 23 22 22 21 22 22 22 22 22 22 21 21 22 22 21 22 22 22 22 23
15 15 15 15 16 17 17 19 20 22 23 23 24 24 24 24 24 24 24 25 26 26 25 25 25 24 24 24 23 22 22 21 21 21 21 21 21 21 21 21 21 21 21 21 21 21 22 22 22
Wind_Direction
142 131 123 131 105 93 238 268 275 294 310 313 315 318 323 332 335 331 332 336 338 339 338 338 334 326 320 314 312 307 307 309 310 314 311 307 307 309 308 304 298 291 289 285 279 274 273 268 265
141 140 140 140 106 194 266 287 291 307 314 314 312 309 312 324 327 328 329 331 332 332 332 332 328 324 316 310 308 308 309 303 303 307 305 301 298 300 302 299 295 290 285 283 282 278 271 268 267
163 152 143 120 164 214 266 284 286 294 302 306 313 313 319 326 328 329 331 330 331 329 327 327 325 322 314 306 303 301 302 298 298 302 302 299 295 294 296 296 292 288 284 282 277 279 274 267 264
187 186 190 272 253 253 272 283 285 286 295 300 308 313 317 320 323 329 329 329 330 326 325 324 321 316 311 306 302 299 296 295 296 296 295 295 294 293 294 294 290 286 282 280 276 273 269 266 263
212 224 252 269 266 268 274 283 287 287 290 303 312 314 317 317 320 325 326 326 327 325 323 323 321 316 312 308 303 299 294 296 296 293 289 289 289 290 291 291 288 283 278 276 273 269 265 263 260
220 239 260 257 269 276 277 284 290 292 292 297 309 311 310 314 316 319 320 322 322 322 320 321 319 316 312 307 301 297 292 293 295 291 287 285 284 286 286 286 285 283 278 274 270 267 264 261 262
230 240 254 263 269 277 280 282 285 293 293 296 298 299 303 309 311 315 315 315 315 315 315 315 313 311 308 304 297 295 290 290 289 288 287 285 283 284 283 283 281 280 276 272 270 269 265 261 262
238 251 264 269 272 277 284 287 289 293 292 292 295 296 301 305 307 310 312 312 314 313 312 309 308 307 304 301 298 295 291 288 286 286 285 284 282 283 283 281 279 277 275 271 269 268 265 263 262
243 257 266 268 273 278 284 290 292 294 297 295 298 300 300 302 305 306 309 310 313 313 311 307 306 306 305 303 300 294 291 288 287 286 283 281 280 282 283 280 278 277 275 272 269 268 267 265 263
247 256 265 271 274 277 283 288 291 293 296 296 297 299 299 299 301 305 308 311 313 315 312 309 305 305 305 304 300 295 291 287 286 287 284 282 282 283 283 279 278 276 274 272 268 266 266 266 263
252 259 270 278 281 279 280 287 289 290 294 297 297 298 298 298 301 305 307 308 311 312 310 308 304 303 303 302 301 296 292 290 287 286 284 283 284 284 283 279 276 275 273 272 271 267 265 264 263
258 266 276 280 283 280 281 285 289 289 290 291 292 293 293 296 301 305 308 309 311 311 307 304 303 302 301 300 298 296 295 293 291 289 287 285 283 283 283 279 276 273 271 270 271 268 266 263 263
260 267 275 280 283 284 286 291 293 291 291 290 292 293 294 294 298 303 305 307 309 308 309 306 302 301 300 299 295 294 295 293 293 291 291 287 285 283 283 280 275 273 271 271 272 268 266 263 261
264 268 275 279 284 288 289 293 292 290 293 296 296 297 296 297 299 302 304 306 307 307 308 307 303 300 301 301 299 296 293 290 291 291 291 289 287 286 286 284 278 277 273 271 273 270 268 265 264
269 273 277 280 284 289 292 293 290 291 294 297 297 297 298 299 300 302 304 304 304 304 305 306 303 300 299 301 301 299 295 293 291 290 290 290 290 288 288 286 281 277 273 271 271 270 267 265 264
273 273 276 282 284 287 291 293 290 291 294 296 297 298 299 302 303 304 304 303 301 301 300 302 301 299 299 300 301 299 295 293 292 290 290 290 287 286 286 283 281 277 274 271 270 270 266 265 264
277 270 275 282 282 285 288 289 289 290 292 294 297 299 299 303 305 305 305 304 301 300 298 300 301 298 297 298 300 300 298 295 293 291 289 290 287 285 284 281 279 276 275 273 270 270 267 266 266
270 274 280 282 284 286 288 288 288 288 291 294 297 299 300 303 306 306 307 306 305 303 302 301 300 298 299 300 300 300 300 298 295 290 288 288 287 285 283 280 277 275 274 274 273 269 267 267 267
266 273 279 284 287 289 290 290 293 291 292 295 298 301 302 303 306 306 307 307 307 304 302 302 301 299 300 302 302 301 301 300 299 295 289 287 286 283 282 280 276 275 274 275 273 270 268 267 266
266 272 279 286 288 289 293 294 297 298 295 297 300 301 299 303 306 307 307 307 307 305 304 305 304 302 301 303 303 302 301 299 298 297 293 288 285 283 280 277 275 274 274 274 273 271 269 267 265
268 274 279 284 287 289 295 297 296 297 298 299 302 303 303 304 307 308 306 306 307 307 307 306 306 304 303 303 303 302 301 301 300 297 294 290 286 284 281 277 274 273 273 273 274 273 268 266 264
270 276 278 283 291 297 296 298 300 300 301 302 304 306 306 306 309 309 307 307 308 307 307 306 306 305 304 304 304 303 302 300 299 297 297 292 287 284 282 278 275 274 275 274 274 272 269 265 264
274 279 279 284 290 294 296 296 301 305 304 305 306 308 307 308 307 307 307 308 309 307 306 305 306 307 306 305 306 305 303 302 299 296 296 293 289 286 283 279 276 274 274 274 272 270 268 267 266
277 280 285 290 296 296 297 300 302 306 306 308 309 309 310 311 310 309 308 309 309 309 309 309 308 307 306 305 306 306 304 302 300 298 296 293 290 287 285 282 279 277 276 272 270 269 267 266 266
280 288 298 297 292 294 299 300 303 305 307 309 311 312 312 313 313 312 311 311 312 312 312 312 312 310 307 306 307 307 306 303 300 299 297 294 291 289 286 283 281 279 277 274 270 269 269 267 266
281 286 288 290 290 294 299 301 305 308 309 310 312 313 313 313 313 313 313 313 313 314 314 314 314 311 309 308 308 308 308 305 301 297 296 293 291 290 289 286 283 280 278 276 273 271 269 268 267
284 286 287 290 295 299 301 305 306 309 310 312 312 311 312 313 313 313 315 314 314 316 317 317 317 313 311 311 309 309 310 308 304 301 299 296 294 293 291 287 283 281 280 277 276 274 272 270 269
281 287 288 291 294 296 300 306 311 313 313 312 311 311 311 312 312 313 314 315 316 316 315 316 316 314 312 311 309 308 308 308 307 307 304 301 297 296 292 288 284 282 281 278 277 276 273 273 273
283 285 286 289 291 294 299 302 306 310 313 313 312 313 313 312 313 314 316 317 317 317 318 318 316 314 312 310 310 310 310 310 308 307 304 303 299 297 293 290 285 284 283 282 278 274 273 275 274
284 285 287 289 292 294 297 299 304 309 312 313 313 314 314 313 313 314 316 318 318 318 318 318 317 316 314 311 310 311 312 310 309 307 305 305 302 298 295 294 289 285 282 279 276 276 275 274 273
Height
5905 5906 5907 5908 5910 5911 5911 5909 5908 5907 5906 5905 5904 5904 5903 5903 5903 5903 5900 5897 5896 5895 5894 5893 5891 5890 5889 5888 5888 5887 5886 5885 5884 5883 5883 5882 5882 5881 5881 5880 5880 5880 5879 5879 5879 5878 5878 5878 5878
5905 5906 5907 5908 5910 5912 5910 5908 5907 5906 5905 5904 5903 5902 5902 5901 5900 5899 5897 5896 5895 5894 5892 5891 5890 5889 5887 5886 5885 5885 5884 5883 5882 5881 5881 5880 5880 5879 5879 5879 5878 5878 5877 5877 5877 5877 5876 5876 5876
5905 5905 5907 5908 5910 5911 5909 5907 5906 5905 5904 5903 5902 5901 5900 5899 5898 5897 5896 5894 5893 5892 5890 5889 5888 5887 5886 5884 5883 5882 5881 5881 5880 5879 5878 5878 5878 5877 5877 5876 5876 5875 5875 5874 5874 5874 5874 5874 5874
5904 5906 5907 5908 5908 5908 5907 5906 5905 5903 5903 5902 5901 5900 5899 5898 5897 5895 5894 5893 5891 5890 5889 5887 5886 5885 5884 5882 5881 5880 5879 5878 5877 5876 5876 5876 5875 5874 5874 5873 5873 5873 5872 5872 5871 5871 5871 5871 5871
5903 5905 5907 5908 5907 5906 5905 5904 5903 5902 5902 5900 5900 5898 5897 5896 5895 5894 5892 5891 5889 5888 5887 5885 5883 5882 5881 5880 5879 5877 5876 5875 5874 5874 5873 5872 5872 5871 5871 5870 5870 5870 5869 5868 5868 5868 5868 5868 5868
5903 5905 5907 5907 5906 5905 5904 5903 5902 5901 5900 5899 5898 5897 5896 5894 5893 5892 5890 5889 5887 5886 5884 5882 5880 5879 5878 5877 5875 5874 5873 5872 5871 5870 5870 5869 5869 5868 5868 5867 5866 5866 5866 5865 5865 5865 5865 5865 5865
5903 5904 5905 5905 5904 5903 5902 5901 5901 5899 5899 5897 5896 5895 5893 5892 5891 5889 5888 5886 5884 5883 5881 5879 5877 5876 5874 5873 5872 5871 5870 5869 5868 5866 5866 5865 5865 5864 5864 5863 5863 5862 5862 5862 5862 5862 5862 5862 5862
5901 5904 5904 5903 5903 5902 5901 5900 5899 5898 5897 5896 5894 5893 5891 5890 5888 5887 5885 5883 5882 5880 5878 5876 5874 5872 5871 5869 5868 5867 5866 5865 5864 5863 5862 5862 5861 5860 5860 5859 5858 5858 5858 5858 5858 5858 5858 5858 5858
5900 5903 5903 5902 5901 5900 5899 5898 5897 5896 5895 5893 5892 5891 5889 5887 5885 5884 5882 5881 5879 5877 5875 5873 5871 5869 5867 5866 5864 5863 5862 5861 5860 5859 5858 5857 5857 5856 5855 5854 5854 5854 5854 5854 5854 5854 5854 5854 5854
5900 5901 5900 5899 5899 5898 5897 5896 5895 5894 5893 5892 5890 5888 5886 5885 5883 5881 5880 5878 5876 5874 5872 5870 5868 5866 5864 5862 5860 5859 5857 5856 5855 5854 5853 5852 5852 5851 5850 5850 5849 5849 5849 5849 5849 5849 5850 5850 5850
5898 5898 5898 5897 5896 5896 5895 5894 5893 5892 5891 5889 5888 5886 5884 5882 5880 5878 5877 5875 5873 5871 5868 5866 5864 5862 5860 5858 5856 5855 5854 5852 5851 5850 5849 5848 5847 5846 5845 5845 5844 5844 5844 5844 5844 5844 5844 5845 5845
5896 5896 5895 5895 5894 5893 5893 5892 5891 5889 5888 5887 5885 5883 5881 5879 5878 5875 5873 5872 5869 5867 5865 5863 5860 5858 5856 5854 5853 5851 5850 5848 5846 5845 5844 5843 5842 5841 5840 5839 5839 5838 5838 5838 5838 5838 5839 5840 5840
5894 5894 5893 5893 5892 5891 5891 5890 5888 5887 5885 5884 5882 5880 5878 5877 5875 5872 5870 5868 5866 5863 5861 5858 5856 5854 5853 5851 5849 5847 5845 5844 5842 5840 5839 5838 5837 5836 5835 5834 5834 5833 5833 5832 5833 5833 5833 5834 5834
5892 5892 5891 5891 5890 5889 5888 5887 5886 5884 5882 5881 5879 5877 5875 5873 5871 5869 5867 5864 5862 5859 5857 5855 5852 5850 5848 5847 5845 5843 5841 5839 5837 5835 5833 5832 5831 5830 5829 5828 5828 5828 5827 5827 5827 5827 5827 5827 5828
5889 5889 5889 5888 5887 5886 5886 5885 5883 5881 5879 5878 5876 5874 5872 5870 5868 5866 5863 5860 5858 5855 5853 5850 5848 5846 5844 5842 5840 5838 5835 5833 5832 5830 5828 5827 5825 5824 5823 5823 5822 5822 5821 5821 5821 5821 5821 5821 5822
5887 5888 5888 5886 5885 5884 5885 5883 5880 5878 5877 5875 5873 5871 5869 5867 5864 5861 5859 5856 5854 5851 5848 5846 5844 5841 5839 5837 5835 5833 5830 5828 5826 5824 5822 5821 5820 5819 5818 5817 5816 5816 5815 5815 5815 5815 5815 5815 5815
5885 5886 5886 5884 5882 5881 5881 5879 5877 5875 5874 5872 5870 5868 5865 5863 5860 5857 5855 5852 5849 5846 5844 5841 5839 5836 5834 5832 5830 5827 5825 5822 5820 5818 5817 5815 5814 5812 5811 5811 5810 5810 5809 5809 5809 5809 5808 5809 5809
5884 5884 5883 5882 5879 5878 5877 5876 5874 5872 5870 5869 5867 5864 5862 5859 5856 5853 5851 5848 5845 5842 5839 5837 5834 5832 5830 5827 5825 5822 5819 5816 5814 5812 5810 5809 5807 5806 5805 5804 5804 5803 5803 5803 5802 5802 5802 5803 5803
5881 5880 5880 5879 5876 5875 5874 5872 5870 5869 5867 5865 5863 5860 5858 5855 5852 5849 5846 5844 5841 5838 5836 5833 5830 5827 5825 5822 5819 5816 5813 5811 5808 5805 5803 5802 5800 5799 5798 5798 5797 5796 5796 5796 5796 5796 5796 5796 5796
5876 5877 5876 5875 5873 5872 5871 5869 5867 5865 5863 5861 5859 5857 5854 5851 5848 5845 5842 5839 5836 5833 5831 5828 5825 5823 5820 5816 5813 5810 5807 5804 5802 5799 5797 5795 5793 5792 5791 5790 5790 5789 5789 5789 5788 5789 5789 5789 5789
5873 5873 5873 5872 5870 5868 5867 5866 5864 5862 5860 5858 5855 5853 5850 5847 5844 5841 5838 5834 5831 5829 5826 5823 5820 5817 5814 5810 5807 5804 5800 5798 5795 5792 5790 5788 5786 5785 5784 5783 5782 5782 5782 5782 5781 5782 5782 5782 5783
5871 5870 5869 5868 5867 5866 5865 5864 5861 5859 5856 5854 5852 5849 5846 5843 5840 5836 5833 5830 5827 5824 5821 5818 5815 5811 5808 5804 5801 5797 5793 5791 5788 5785 5783 5781 5779 5777 5776 5775 5775 5775 5775 5775 5775 5774 5774 5775 5776
5868 5867 5866 5865 5864 5863 5862 5861 5859 5855 5853 5851 5848 5845 5842 5839 5836 5832 5829 5826 5822 5819 5815 5812 5808 5805 5802 5798 5794 5791 5787 5784 5781 5779 5777 5774 5772 5770 5769 5768 5767 5767 5767 5767 5767 5767 5767 5768 5769
5864 5864 5863 5862 5861 5860 5859 5858 5856 5853 5850 5847 5844 5841 5838 5835 5831 5828 5825 5821 5817 5814 5810 5806 5802 5799 5795 5791 5788 5785 5782 5778 5775 5773 5770 5768 5766 5764 5762 5761 5760 5760 5760 5760 5760 5760 5760 5761 5762
5861 5861 5861 5861 5860 5859 5856 5854 5853 5849 5846 5843 5840 5837 5834 5830 5827 5824 5820 5817 5813 5809 5805 5801 5797 5793 5789 5786 5782 5779 5776 5772 5769 5766 5764 5762 5760 5758 5756 5755 5754 5753 5752 5752 5752 5753 5753 5754 5754
5858 5859 5860 5859 5858 5857 5852 5850 5849 5845 5842 5839 5836 5833 5830 5826 5823 5819 5816 5812 5808 5803 5800 5796 5791 5787 5783 5780 5777 5773 5770 5766 5763 5760 5758 5756 5754 5752 5750 5749 5747 5746 5745 5745 5745 5745 5746 5746 5747
5855 5855 5856 5855 5853 5852 5849 5846 5844 5841 5838 5835 5832 5829 5825 5822 5819 5815 5811 5807 5803 5798 5794 5790 5786 5782 5778 5775 5771 5768 5764 5761 5758 5755 5752 5750 5748 5746 5744 5742 5741 5740 5739 5738 5738 5738 5739 5739 5739
5853 5852 5851 5850 5849 5848 5847 5843 5841 5836 5834 5831 5828 5824 5821 5817 5814 5810 5806 5802 5798 5794 5790 5785 5780 5777 5773 5769 5766 5762 5759 5756 5752 5750 5747 5744 5742 5740 5738 5736 5735 5734 5733 5732 5731 5732 5731 5732 5732
5849 5848 5847 5847 5845 5844 5843 5843 5836 5833 5830 5827 5823 5819 5816 5812 5809 5805 5801 5797 5793 5789 5784 5780 5776 5772 5768 5765 5761 5757 5754 5751 5747 5744 5741 5739 5736 5733 5731 5730 5728 5727 5727 5726 5725 5725 5725 5725 5725
5845 5844 5843 5843 5841 5839 5837 5839 5831 5829 5826 5822 5818 5815 5811 5807 5804 5800 5796 5792 5788 5784 5780 5775 5771 5767 5763 5759 5756 5752 5749 5746 5742 5739 5736 5733 5730 5728 5725 5723 5722 5721 5720 5720 5719 5719 5718 5719 5718